Weather History for Clearfield, PA

Change the Weather History Date:

Saturday, May 10, 2014

  Actual Average (KDUJ) Record (KDUJ)
Temperature  
Mean Temperature 64 °F 55 °F  
Max Temperature 71 °F 66 °F 84 °F (1979)
Min Temperature 59 °F 44 °F 22 °F (1966)
Degree Days  
Heating Degree Days 0 11  
Month to date heating degree days 118  
Since 1 July heating degree days 6631  
Cooling Degree Days 0 0  
Month to date cooling degree days 0  
Year to date cooling degree days 4  
Growing Degree Days 14 (Base 50)    
Moisture  
Dew Point 57 °F    
Average Humidity 78    
Maximum Humidity 90    
Minimum Humidity 58    
Precipitation  
Precipitation 0.00 in 0.13 in 0.84 in (1989)
Month to date precipitation 1.27  
Sea Level Pressure  
Sea Level Pressure 29.92 in    
Wind  
Wind Speed 8 mph (SW)    
Max Wind Speed 16 mph    
Max Gust Speed 25 mph    
Visibility 10 miles    
Events      
T = Trace of Precipitation, MM = Missing Value Source: NWS Daily Summary

Daily Weather History Graph

Daily Weather History Graph

Search for Another Location

Airport:

Trip Planner

Search our weather history database for the weather conditions in past years. The results will help you decide how hot, cold, wet, or windy it might be!

Date:

Astronomy

May. 10, 2014 Rise Set
Actual Time 6:00 AM EDT 8:19 PM EDT
Civil Twilight 5:30 AM EDT 8:50 PM EDT
Nautical Twilight 4:52 AM EDT 9:28 PM EDT
Astronomical Twilight 4:10 AM EDT 10:11 PM EDT
Moon 4:11 PM EDT (5/10) 3:35 AM EDT (5/10)
Length of Visible Light 15h 20m
Length of Day
14h 18m
Waxing Gibbous, 82% of the Moon is Illuminated
May 10
Waxing Gibbous
May 14
Full
May 21
Last Quarter
May 28
New
Jun 5
First Quarter

Hourly Weather History & Observations

Time (EDT) Temp. Dew Point Humidity Pressure Visibility Wind Dir Wind Speed Gust Speed Precip Events Conditions
12:54 AM 64.0 °F 61.0 °F 90% 29.88 in 10.0 mi SSW 5.8 mph - N/A   Mostly Cloudy
1:54 AM 64.9 °F 60.1 °F 84% 29.88 in 10.0 mi SSW 6.9 mph - N/A   Overcast
2:30 AM 64.9 °F 59.0 °F 81% 29.91 in 10.0 mi SW 6.9 mph - N/A   Overcast
2:52 AM 64.4 °F 59.0 °F 83% 29.91 in 10.0 mi SSW 8.1 mph - N/A   Overcast
2:54 AM 64.9 °F 59.0 °F 81% 29.88 in 10.0 mi SW 8.1 mph - N/A   Overcast
3:54 AM 64.9 °F 59.0 °F 81% 29.88 in 10.0 mi SW 6.9 mph - N/A   Overcast
4:50 AM 64.4 °F 59.0 °F 83% 29.91 in 10.0 mi SW 6.9 mph - 0.00 in   Scattered Clouds
4:54 AM 64.0 °F 59.0 °F 84% 29.88 in 10.0 mi SSW 8.1 mph - 0.00 in   Mostly Cloudy
5:29 AM 64.0 °F 60.1 °F 87% 29.92 in 10.0 mi SW 8.1 mph - N/A   Mostly Cloudy
5:39 AM 64.0 °F 60.1 °F 87% 29.92 in 10.0 mi SW 8.1 mph - N/A   Mostly Cloudy
5:54 AM 64.0 °F 60.1 °F 87% 29.90 in 10.0 mi SSW 8.1 mph - N/A   Overcast
6:09 AM 64.0 °F 60.1 °F 87% 29.93 in 10.0 mi SW 6.9 mph - N/A   Mostly Cloudy
6:54 AM 64.0 °F 60.1 °F 87% 29.91 in 10.0 mi SW 5.8 mph - N/A   Mostly Cloudy
7:54 AM 64.9 °F 60.1 °F 84% 29.93 in 10.0 mi SW 9.2 mph - N/A   Overcast
8:54 AM 66.0 °F 59.0 °F 78% 29.94 in 10.0 mi SW 9.2 mph 18.4 mph N/A   Mostly Cloudy
9:54 AM 66.9 °F 57.9 °F 73% 29.94 in 10.0 mi SW 9.2 mph - N/A   Overcast
10:54 AM 69.1 °F 55.9 °F 63% 29.94 in 10.0 mi WSW 13.8 mph 23.0 mph N/A   Mostly Cloudy
11:54 AM 69.1 °F 55.0 °F 61% 29.94 in 10.0 mi SW 11.5 mph 19.6 mph N/A   Overcast
12:54 PM 70.0 °F 55.9 °F 61% 29.91 in 10.0 mi SW 10.4 mph 18.4 mph N/A   Mostly Cloudy
1:54 PM 70.0 °F 55.0 °F 59% 29.90 in 10.0 mi WSW 12.7 mph 19.6 mph N/A   Mostly Cloudy
2:54 PM 69.1 °F 55.9 °F 63% 29.90 in 10.0 mi SSW 11.5 mph 20.7 mph N/A   Mostly Cloudy
3:54 PM 69.1 °F 54.0 °F 58% 29.89 in 10.0 mi SW 13.8 mph 25.3 mph 0.00 in   Scattered Clouds
4:54 PM 66.9 °F 54.0 °F 63% 29.91 in 10.0 mi SW 16.1 mph 20.7 mph N/A   Mostly Cloudy
5:54 PM 64.0 °F 54.0 °F 70% 29.91 in 10.0 mi WSW 12.7 mph 23.0 mph N/A   Scattered Clouds
6:54 PM 63.0 °F 54.0 °F 72% 29.90 in 10.0 mi SW 9.2 mph - N/A   Scattered Clouds
7:54 PM 62.1 °F 55.0 °F 78% 29.92 in 10.0 mi WSW 9.2 mph - N/A   Partly Cloudy
8:30 PM 62.1 °F 55.9 °F 80% 29.94 in 10.0 mi WSW 4.6 mph - N/A   Overcast
8:54 PM 61.0 °F 55.9 °F 83% 29.94 in 10.0 mi SW 5.8 mph - N/A   Mostly Cloudy
9:54 PM 61.0 °F 55.9 °F 83% 29.95 in 10.0 mi SW 9.2 mph - N/A   Overcast
10:44 PM 60.1 °F 55.9 °F 86% 29.98 in 10.0 mi SSW 9.2 mph - N/A   Overcast
10:54 PM 60.1 °F 55.9 °F 86% 29.97 in 10.0 mi SW 6.9 mph - N/A   Overcast
11:42 PM 59.0 °F 55.9 °F 90% 29.99 in 10.0 mi WSW 6.9 mph - N/A   Scattered Clouds
11:54 PM 59.0 °F 55.0 °F 87% 29.98 in 10.0 mi WSW 6.9 mph - N/A   Scattered Clouds